This is the latest recevied weather packets stored in our database for station/object K5BOU. If no packets are shown the sender has not sent any weather packets the latest 10 day(s).
| Time | Temp. | Humidity | Pressure | Rain* | Wind** | Luminosity | Snow |
|---|---|---|---|---|---|---|---|
| 1788104150 | 31.67° C | 81% | 1015.6 hPa | 0 mm | - | 735 W/m² | - |
| 1788103849 | 31.67° C | 79% | 1015.6 hPa | 0 mm | - | 727 W/m² | - |
| 1788103543 | 31.11° C | 81% | 1015.6 hPa | 0 mm | - | 719 W/m² | - |
| 1788103243 | 30° C | 85% | 1015.6 hPa | 0 mm | - | 719 W/m² | - |
| 1788102942 | 29.44° C | 87% | 1015.6 hPa | 0 mm | - | 295 W/m² | - |
| 1788102638 | 30° C | 88% | 1015.7 hPa | 0 mm | - | 154 W/m² | - |
| 1788102337 | 30.56° C | 86% | 1015.5 hPa | 0 mm | - | 393 W/m² | - |
| 1788102032 | 31.11° C | 85% | 1015.5 hPa | 0 mm | - | 573 W/m² | - |
| 1788101732 | 30.56° C | 87% | 1015.7 hPa | 0 mm | - | 601 W/m² | - |
| 1788101427 | 29.44° C | 90% | 1015.7 hPa | 0 mm | - | 575 W/m² | - |
| 1788101123 | 29.44° C | 88% | 1015.8 hPa | 0 mm | - | 143 W/m² | - |
| 1788100819 | 30° C | 88% | 1015.8 hPa | 0 mm | - | 167 W/m² | - |
| 1788100514 | 29.44° C | 90% | 1015.7 hPa | 0 mm | - | 327 W/m² | - |
| 1788100212 | 30° C | 88% | 1015.7 hPa | 0 mm | - | 337 W/m² | - |
| 1788099908 | 30° C | 88% | 1015.8 hPa | 0 mm | - | 291 W/m² | - |
| 1788099603 | 30° C | 89% | 1015.7 hPa | 0 mm | - | 84 W/m² | - |
| 1788099298 | 29.44° C | 91% | 1015.7 hPa | 0 mm | - | 269 W/m² | - |
| 1788098992 | 29.44° C | 90% | 1015.5 hPa | 0 mm | - | 164 W/m² | - |
| 1788098687 | 29.44° C | 90% | 1015.7 hPa | 0 mm | - | 132 W/m² | - |
| 1788098386 | 30° C | 89% | 1015.8 hPa | 0 mm | - | 65 W/m² | - |
| 1788098082 | 29.44° C | 91% | 1015.9 hPa | 0 mm | - | 62 W/m² | - |
| 1788097777 | 28.89° C | 92% | 1015.7 hPa | 0 mm | - | 60 W/m² | - |
| 1788097473 | 28.89° C | 95% | 1015.6 hPa | 0 mm | - | 58 W/m² | - |
| 1788097168 | 28.33° C | 98% | 1015.5 hPa | 0 mm | - | 55 W/m² | - |
| 1788096864 | 27.22° C | 99% | 1015.5 hPa | 0 mm | - | 53 W/m² | - |
* Rain latest hour (hover to see other rain measurements)
** Current wind speed in m/s (hover to see current wind gust speed)